TimeMDT,TemperatureF,Dew PointF,Humidity,Sea Level PressureIn,VisibilityMPH,Wind Direction,Wind SpeedMPH,Gust SpeedMPH,PrecipitationIn,Events,Conditions,WindDirDegrees,DateUTC
12:15 AM,60.8,53.6,77,30.17,10.0,SSE,11.5,-,N/A,,Clear,160,2012-10-12 06:15:00
12:35 AM,62.6,55.4,77,30.16,10.0,South,15.0,-,N/A,,Clear,170,2012-10-12 06:35:00
12:55 AM,62.6,55.4,77,30.16,10.0,South,12.7,-,N/A,,Clear,170,2012-10-12 06:55:00
1:15 AM,62.6,55.4,77,30.16,10.0,South,13.8,-,N/A,,Clear,180,2012-10-12 07:15:00
1:35 AM,62.6,57.2,82,30.17,10.0,South,15.0,-,N/A,,Clear,190,2012-10-12 07:35:00
1:55 AM,62.6,57.2,82,30.16,10.0,South,13.8,-,N/A,,Clear,190,2012-10-12 07:55:00
2:15 AM,62.6,57.2,82,30.17,10.0,South,12.7,-,N/A,,Clear,190,2012-10-12 08:15:00
2:35 AM,62.6,57.2,82,30.16,10.0,South,10.4,-,N/A,,Clear,190,2012-10-12 08:35:00
2:55 AM,62.6,57.2,82,30.15,10.0,South,10.4,-,N/A,,Clear,190,2012-10-12 08:55:00
3:15 AM,62.6,59.0,88,30.15,8.0,South,11.5,-,N/A,,Clear,190,2012-10-12 09:15:00
3:35 AM,62.6,57.2,82,30.15,8.0,South,10.4,-,N/A,,Clear,190,2012-10-12 09:35:00
3:55 AM,62.6,57.2,82,30.16,7.0,SSW,10.4,-,N/A,,Partly Cloudy,200,2012-10-12 09:55:00
4:15 AM,62.6,57.2,82,30.16,7.0,South,8.1,-,N/A,,Mostly Cloudy,190,2012-10-12 10:15:00
4:35 AM,62.6,57.2,82,30.16,7.0,SSW,8.1,-,N/A,,Scattered Clouds,200,2012-10-12 10:35:00
4:55 AM,62.6,57.2,82,30.17,7.0,SW,9.2,-,N/A,,Scattered Clouds,230,2012-10-12 10:55:00
5:15 AM,62.6,59.0,88,30.19,7.0,WSW,10.4,-,N/A,Thunderstorm,Mostly Cloudy,250,2012-10-12 11:15:00
5:35 AM,64.4,60.8,88,30.21,7.0,WSW,10.4,-,N/A,Thunderstorm,Thunderstorm,250,2012-10-12 11:35:00
5:55 AM,60.8,53.6,77,30.23,9.0,West,25.3,36.8,0.03,Thunderstorm,Thunderstorm,260,2012-10-12 11:55:00
6:15 AM,57.2,53.6,88,30.27,7.0,West,23.0,33.4,0.19,Thunderstorm,Thunderstorm,280,2012-10-12 12:15:00
6:35 AM,57.2,53.6,88,30.26,8.0,WNW,12.7,-,0.27,Thunderstorm,Thunderstorm,290,2012-10-12 12:35:00
6:55 AM,59.0,53.6,82,30.26,10.0,WNW,10.4,-,0.31,,Overcast,300,2012-10-12 12:55:00
7:15 AM,59.0,53.6,82,30.24,10.0,North,12.7,-,0.04,,Overcast,360,2012-10-12 13:15:00
7:35 AM,57.2,53.6,88,30.23,10.0,North,17.3,-,0.04,,Mostly Cloudy,10,2012-10-12 13:35:00
7:55 AM,57.2,53.6,88,30.20,10.0,NNE,20.7,-,0.04,,Scattered Clouds,30,2012-10-12 13:55:00
8:15 AM,59.0,53.6,82,30.21,10.0,NE,16.1,-,N/A,Thunderstorm,Scattered Clouds,40,2012-10-12 14:15:00
8:35 AM,55.4,51.8,88,30.21,8.0,NNE,15.0,-,0.03,Thunderstorm,Thunderstorm,30,2012-10-12 14:35:00
8:55 AM,55.4,51.8,88,30.20,10.0,NNE,16.1,26.5,0.03,Thunderstorm,Mostly Cloudy,30,2012-10-12 14:55:00
9:15 AM,55.4,51.8,88,30.21,10.0,NNE,16.1,-,N/A,,Mostly Cloudy,20,2012-10-12 15:15:00
9:35 AM,57.2,53.6,88,30.21,10.0,NNE,11.5,-,N/A,,Partly Cloudy,30,2012-10-12 15:35:00
9:55 AM,60.8,53.6,77,30.20,10.0,NE,13.8,-,N/A,,Clear,50,2012-10-12 15:55:00
10:15 AM,60.8,53.6,77,30.20,10.0,NE,13.8,-,N/A,,Clear,50,2012-10-12 16:15:00
10:35 AM,60.8,53.6,77,30.20,10.0,ENE,10.4,-,N/A,,Clear,60,2012-10-12 16:35:00
10:55 AM,60.8,55.4,82,30.21,10.0,ENE,8.1,-,N/A,,Clear,70,2012-10-12 16:55:00
11:15 AM,64.4,55.4,73,30.21,10.0,ENE,8.1,-,N/A,,Scattered Clouds,70,2012-10-12 17:15:00
11:35 AM,64.4,55.4,73,30.21,10.0,ESE,9.2,-,N/A,,Overcast,110,2012-10-12 17:35:00
11:55 AM,66.2,55.4,68,30.20,10.0,ESE,10.4,-,N/A,,Overcast,120,2012-10-12 17:55:00
12:35 PM,66.2,57.2,73,30.19,10.0,SSE,11.5,-,N/A,,Overcast,150,2012-10-12 18:35:00
12:55 PM,68.0,60.8,78,30.18,10.0,SSE,11.5,-,N/A,,Overcast,150,2012-10-12 18:55:00
1:15 PM,68.0,60.8,78,30.16,10.0,SE,8.1,-,N/A,,Overcast,140,2012-10-12 19:15:00
1:35 PM,68.0,60.8,78,30.15,10.0,SE,10.4,-,N/A,,Overcast,130,2012-10-12 19:35:00
1:55 PM,69.8,60.8,73,30.15,10.0,SE,15.0,-,N/A,,Mostly Cloudy,130,2012-10-12 19:55:00
2:15 PM,69.8,62.6,78,30.14,10.0,SE,17.3,-,N/A,,Mostly Cloudy,140,2012-10-12 20:15:00
2:35 PM,69.8,62.6,78,30.12,10.0,SE,12.7,-,N/A,,Mostly Cloudy,130,2012-10-12 20:35:00
2:55 PM,71.6,62.6,73,30.11,10.0,SE,16.1,-,N/A,,Mostly Cloudy,140,2012-10-12 20:55:00
3:15 PM,71.6,62.6,73,30.11,10.0,SE,11.5,-,N/A,,Mostly Cloudy,130,2012-10-12 21:15:00
3:35 PM,71.6,62.6,73,30.09,10.0,SSE,12.7,-,N/A,,Scattered Clouds,150,2012-10-12 21:35:00
3:55 PM,73.4,62.6,69,30.08,10.0,SE,16.1,-,N/A,,Scattered Clouds,130,2012-10-12 21:55:00
4:15 PM,71.6,62.6,73,30.08,10.0,SE,20.7,-,N/A,,Mostly Cloudy,130,2012-10-12 22:15:00
4:55 PM,71.6,62.6,73,30.06,10.0,SE,15.0,-,N/A,,Scattered Clouds,130,2012-10-12 22:55:00
5:15 PM,71.6,62.6,73,30.05,10.0,ESE,13.8,-,N/A,,Mostly Cloudy,120,2012-10-12 23:15:00
5:35 PM,71.6,62.6,73,30.04,10.0,SSE,15.0,-,N/A,,Mostly Cloudy,150,2012-10-12 23:35:00
5:55 PM,71.6,62.6,73,30.04,10.0,SSE,15.0,24.2,N/A,,Partly Cloudy,150,2012-10-12 23:55:00
6:15 PM,69.8,62.6,78,30.04,10.0,SSE,13.8,-,N/A,,Clear,150,2012-10-13 00:15:00
6:35 PM,69.8,62.6,78,30.04,10.0,SSE,12.7,-,N/A,,Clear,150,2012-10-13 00:35:00
6:55 PM,68.0,62.6,83,30.04,10.0,SSE,11.5,-,N/A,,Clear,160,2012-10-13 00:55:00
7:15 PM,68.0,60.8,78,30.04,10.0,SSE,10.4,-,N/A,,Partly Cloudy,160,2012-10-13 01:15:00
7:35 PM,66.2,60.8,83,30.05,10.0,SSE,10.4,-,N/A,,Partly Cloudy,160,2012-10-13 01:35:00
7:55 PM,66.2,60.8,83,30.05,10.0,SSE,10.4,-,N/A,,Scattered Clouds,150,2012-10-13 01:55:00
8:15 PM,66.2,62.6,88,30.05,10.0,SSE,12.7,-,N/A,,Mostly Cloudy,150,2012-10-13 02:15:00
8:35 PM,66.2,60.8,83,30.06,10.0,SSE,10.4,-,N/A,,Partly Cloudy,160,2012-10-13 02:35:00
8:55 PM,66.2,60.8,83,30.06,10.0,SSE,15.0,-,N/A,,Mostly Cloudy,150,2012-10-13 02:55:00
9:15 PM,66.2,60.8,83,30.05,10.0,SSE,19.6,-,N/A,,Mostly Cloudy,160,2012-10-13 03:15:00
9:35 PM,66.2,60.8,83,30.05,10.0,SSE,19.6,24.2,N/A,,Partly Cloudy,150,2012-10-13 03:35:00
9:55 PM,66.2,59.0,78,30.05,10.0,SSE,19.6,25.3,N/A,,Scattered Clouds,150,2012-10-13 03:55:00
10:15 PM,66.2,59.0,78,30.05,10.0,SSE,20.7,-,N/A,,Partly Cloudy,160,2012-10-13 04:15:00
10:35 PM,66.2,59.0,78,30.04,10.0,SSE,20.7,26.5,N/A,,Partly Cloudy,160,2012-10-13 04:35:00
10:55 PM,64.4,59.0,83,30.01,10.0,SSE,24.2,31.1,N/A,,Clear,160,2012-10-13 04:55:00
11:15 PM,64.4,59.0,83,30.01,10.0,South,27.6,35.7,N/A,,Clear,170,2012-10-13 05:15:00
11:55 PM,62.6,57.2,82,29.99,10.0,South,19.6,25.3,N/A,,Clear,170,2012-10-13 05:55:00